When you browse on this site, cookies collect data to enhance your experience and personalize the content and advertising you see.
Visit our Privacy Policy to learn more. By continuing to use the site, you agree to this use of cookies and data.
  • In United Kingdom
  • List of Countries
  • For 7 days
  • Water Temperature
  • Weather Map
  • Weather Widgets
  • user-avatar
    Login

    Hourly Weather Pleven

    Today, 20 January, Monday

    Time Temperature Precipitation Wind Pressure Humidity
    00:00 +1°C° 0.1 mm 1 mps 758 mmHg 91%
    01:00 +1°C° 0.1 mm 1 mps 759 mmHg 93%
    02:00 +1°C° 0.1 mm 1 mps 759 mmHg 95%
    03:00 +1°C° 0.1 mm 1 mps 759 mmHg 94%
    04:00 +1°C° 0.1 mm 1 mps 760 mmHg 94%
    05:00 0°C° 0.1 mm 1 mps 760 mmHg 94%
    06:00 0°C° 0 mm 1 mps 760 mmHg 94%
    07:00 0°C° 0 mm 1 mps 761 mmHg 93%
    08:00 -1°C° 0 mm 0 mps 762 mmHg 93%
    09:00 +1°C° 0 mm 1 mps 762 mmHg 86%
    10:00 +2°C° 0 mm 1 mps 762 mmHg 80%
    11:00 +3°C° 0 mm 1 mps 762 mmHg 73%
    12:00 +3°C° 0 mm 1 mps 762 mmHg 70%
    13:00 +3°C° 0 mm 2 mps 762 mmHg 66%
    14:00 +3°C° 0 mm 2 mps 763 mmHg 63%
    15:00 +3°C° 0 mm 2 mps 763 mmHg 65%
    16:00 +3°C° 0 mm 1 mps 763 mmHg 66%
    17:00 +3°C° 0 mm 1 mps 763 mmHg 68%
    18:00 +2°C° 0 mm 1 mps 763 mmHg 71%
    19:00 +2°C° 0 mm 1 mps 764 mmHg 73%
    20:00 +1°C° 0 mm 1 mps 764 mmHg 75%
    21:00 +1°C° 0 mm 1 mps 764 mmHg 76%
    22:00 +1°C° 0 mm 1 mps 764 mmHg 77%
    23:00 +1°C° 0 mm 1 mps 765 mmHg 78%

    Tomorrow, 21 January, Tuesday

    Time Temperature Precipitation Wind Pressure Humidity
    00:00 0°C° 0 mm 1 mps 765 mmHg 78%
    01:00 0°C° 0 mm 1 mps 765 mmHg 79%
    02:00 0°C° 0 mm 1 mps 765 mmHg 80%
    03:00 0°C° 0 mm 1 mps 764 mmHg 79%
    04:00 0°C° 0 mm 1 mps 764 mmHg 79%
    05:00 0°C° 0 mm 1 mps 764 mmHg 78%
    06:00 -1°C° 0 mm 0 mps 764 mmHg 77%
    07:00 -1°C° 0 mm 0 mps 764 mmHg 77%
    08:00 -1°C° 0 mm 0 mps 764 mmHg 76%
    09:00 +1°C° 0 mm 1 mps 764 mmHg 69%
    10:00 +3°C° 0 mm 1 mps 763 mmHg 63%
    11:00 +4°C° 0 mm 1 mps 763 mmHg 56%
    12:00 +5°C° 0 mm 1 mps 763 mmHg 54%
    13:00 +6°C° 0 mm 1 mps 762 mmHg 52%
    14:00 +6°C° 0 mm 1 mps 762 mmHg 50%
    15:00 +5°C° 0 mm 1 mps 761 mmHg 54%
    16:00 +5°C° 0 mm 1 mps 761 mmHg 58%
    17:00 +4°C° 0 mm 1 mps 761 mmHg 62%
    18:00 +3°C° 0 mm 1 mps 761 mmHg 63%
    19:00 +3°C° 0 mm 1 mps 761 mmHg 64%
    20:00 +2°C° 0 mm 1 mps 761 mmHg 66%
    21:00 +2°C° 0 mm 1 mps 760 mmHg 66%
    22:00 +2°C° 0 mm 1 mps 760 mmHg 67%
    23:00 +2°C° 0 mm 1 mps 760 mmHg 67%

    Day after tomorrow, 22 January, Wednesday

    Time Temperature Precipitation Wind Pressure Humidity
    00:00 +2°C° 0 mm 1 mps 759 mmHg 67%
    01:00 +2°C° 0 mm 1 mps 759 mmHg 67%
    02:00 0°C° 0 mm 0 mps 759 mmHg 68%
    03:00 0°C° 0 mm 0 mps 758 mmHg 67%
    04:00 0°C° 0 mm 0 mps 758 mmHg 66%
    05:00 0°C° 0 mm 0 mps 757 mmHg 66%
    06:00 0°C° 0 mm 0 mps 757 mmHg 64%
    07:00 0°C° 0 mm 0 mps 757 mmHg 63%
    08:00 0°C° 0 mm 0 mps 757 mmHg 62%
    09:00 +2°C° 0 mm 0 mps 756 mmHg 56%
    10:00 +5°C° 0 mm 1 mps 756 mmHg 49%
    11:00 +7°C° 0 mm 1 mps 756 mmHg 43%
    12:00 +8°C° 0 mm 1 mps 755 mmHg 41%
    13:00 +9°C° 0 mm 1 mps 754 mmHg 38%
    14:00 +10°C° 0 mm 1 mps 753 mmHg 36%
    15:00 +9°C° 0 mm 1 mps 753 mmHg 39%
    16:00 +8°C° 0 mm 1 mps 752 mmHg 41%
    17:00 +7°C° 0 mm 1 mps 752 mmHg 44%
    18:00 +6°C° 0 mm 2 mps 752 mmHg 43%
    19:00 +5°C° 0 mm 2 mps 751 mmHg 42%
    20:00 +4°C° 0 mm 3 mps 751 mmHg 40%
    21:00 +4°C° 0 mm 3 mps 751 mmHg 38%
    22:00 +3°C° 0 mm 3 mps 751 mmHg 36%
    23:00 +3°C° 0 mm 3 mps 751 mmHg 34%

    23 January, Thursday

    Time Temperature Precipitation Wind Pressure Humidity
    00:00 +3°C° 0 mm 3 mps 751 mmHg 35%
    01:00 +3°C° 0 mm 2 mps 751 mmHg 36%
    02:00 +3°C° 0 mm 2 mps 751 mmHg 37%
    03:00 +2°C° 0 mm 3 mps 751 mmHg 43%
    04:00 +1°C° 0 mm 3 mps 751 mmHg 48%
    05:00 +1°C° 0 mm 3 mps 751 mmHg 53%
    06:00 0°C° 0 mm 3 mps 752 mmHg 57%
    07:00 0°C° 0 mm 3 mps 753 mmHg 60%
    08:00 0°C° 0 mm 3 mps 753 mmHg 63%
    09:00 +1°C° 0 mm 3 mps 754 mmHg 61%
    10:00 +1°C° 0 mm 4 mps 754 mmHg 59%
    11:00 +3°C° 0 mm 4 mps 755 mmHg 57%
    12:00 +4°C° 0 mm 4 mps 755 mmHg 56%
    13:00 +5°C° 0 mm 3 mps 755 mmHg 55%
    14:00 +5°C° 0 mm 3 mps 755 mmHg 54%
    15:00 +6°C° 0 mm 2 mps 755 mmHg 57%
    16:00 +5°C° 0 mm 2 mps 755 mmHg 60%
    17:00 +5°C° 0 mm 1 mps 756 mmHg 64%
    18:00 +5°C° 0 mm 1 mps 756 mmHg 66%
    19:00 +4°C° 0 mm 1 mps 756 mmHg 69%
    20:00 +3°C° 0 mm 1 mps 756 mmHg 72%
    21:00 +3°C° 0 mm 1 mps 757 mmHg 73%
    22:00 +3°C° 0 mm 1 mps 757 mmHg 74%
    23:00 +2°C° 0 mm 1 mps 758 mmHg 75%

    24 January, Friday

    Time Temperature Precipitation Wind Pressure Humidity
    00:00 +1°C° 0 mm 0 mps 758 mmHg 76%
    01:00 +1°C° 0 mm 0 mps 758 mmHg 76%
    02:00 +1°C° 0 mm 0 mps 757 mmHg 77%
    03:00 +1°C° 0 mm 0 mps 757 mmHg 77%
    04:00 +1°C° 0 mm 0 mps 757 mmHg 77%
    05:00 +1°C° 0 mm 0 mps 757 mmHg 77%
    06:00 0°C° 0 mm 0 mps 757 mmHg 77%
    07:00 +1°C° 0 mm 1 mps 757 mmHg 77%
    08:00 +1°C° 0 mm 1 mps 757 mmHg 76%
    09:00 +2°C° 0 mm 0 mps 758 mmHg 69%
    10:00 +3°C° 0 mm 0 mps 758 mmHg 62%
    11:00 +5°C° 0 mm 0 mps 758 mmHg 55%
    12:00 +6°C° 0 mm 0 mps 757 mmHg 52%
    13:00 +7°C° 0 mm 0 mps 756 mmHg 50%
    14:00 +8°C° 0 mm 0 mps 755 mmHg 47%
    15:00 +7°C° 0 mm 0 mps 755 mmHg 51%
    16:00 +6°C° 0 mm 0 mps 755 mmHg 55%
    17:00 +5°C° 0 mm 0 mps 755 mmHg 58%
    18:00 +4°C° 0 mm 0 mps 755 mmHg 61%
    19:00 +4°C° 0 mm 0 mps 754 mmHg 63%
    20:00 +3°C° 0 mm 0 mps 754 mmHg 65%
    21:00 +3°C° 0 mm 0 mps 754 mmHg 66%
    22:00 +3°C° 0 mm 0 mps 754 mmHg 67%
    23:00 +2°C° 0 mm 0 mps 754 mmHg 67%

    25 January, Saturday

    Time Temperature Precipitation Wind Pressure Humidity
    00:00 +3°C° 0 mm 1 mps 753 mmHg 67%
    01:00 +3°C° 0 mm 1 mps 753 mmHg 67%
    02:00 +3°C° 0 mm 1 mps 752 mmHg 67%
    03:00 +3°C° 0 mm 1 mps 752 mmHg 65%
    04:00 +3°C° 0 mm 1 mps 752 mmHg 64%
    05:00 +3°C° 0 mm 1 mps 751 mmHg 63%
    06:00 +3°C° 0 mm 1 mps 751 mmHg 61%
    07:00 +3°C° 0 mm 0 mps 751 mmHg 60%
    08:00 +3°C° 0 mm 0 mps 751 mmHg 59%
    09:00 +4°C° 0 mm 0 mps 751 mmHg 54%
    10:00 +6°C° 0 mm 0 mps 751 mmHg 50%
    11:00 +8°C° 0 mm 0 mps 751 mmHg 45%
    12:00 +9°C° 0 mm 0 mps 751 mmHg 43%
    13:00 +11°C° 0 mm 1 mps 750 mmHg 40%
    14:00 +13°C° 0 mm 1 mps 750 mmHg 38%
    15:00 +12°C° 0 mm 1 mps 750 mmHg 41%
    16:00 +11°C° 0 mm 1 mps 750 mmHg 45%
    17:00 +10°C° 0 mm 1 mps 750 mmHg 48%
    18:00 +10°C° 0 mm 1 mps 750 mmHg 49%
    19:00 +9°C° 0 mm 1 mps 750 mmHg 49%
    20:00 +8°C° 0 mm 0 mps 750 mmHg 49%
    21:00 +9°C° 0 mm 1 mps 750 mmHg 49%
    22:00 +8°C° 0 mm 1 mps 750 mmHg 50%
    23:00 +8°C° 0 mm 1 mps 750 mmHg 50%
    Show more